Weather History for Sylvania, GA

Change the Weather History Date:

Thursday, January 17, 2013

  Actual Average (KSAV) Record (KSAV)
Temperature  
Mean Temperature 60 °F 49 °F  
Max Temperature 78 °F 60 °F 81 °F (1943)
Min Temperature 42 °F 38 °F 16 °F (1977)
Degree Days  
Heating Degree Days 5 16  
Month to date heating degree days 272  
Since 1 July heating degree days 962  
Cooling Degree Days 0 0  
Month to date cooling degree days 0  
Year to date cooling degree days 0  
Growing Degree Days 10 (Base 50)    
Moisture  
Dew Point 57 °F    
Average Humidity 88    
Maximum Humidity 100    
Minimum Humidity 65    
Precipitation  
Precipitation 0.00 in 0.13 in 0.96 in (1964)
Month to date precipitation 1.93  
Year to date precipitation 1.93  
Sea Level Pressure  
Sea Level Pressure 29.94 in    
Wind  
Wind Speed 5 mph (SW)    
Max Wind Speed 21 mph    
Max Gust Speed 32 mph    
Visibility 9 miles    
Events Rain    
T = Trace of Precipitation, MM = Missing Value Source: NWS Daily Summary

Daily Weather History Graph

Daily Weather History Graph

Search for Another Location

Airport:

Trip Planner

Search our weather history database for the weather conditions in past years. The results will help you decide how hot, cold, wet, or windy it might be!

Date:

Astronomy

Jan. 17, 2013 Rise Set
Actual Time 7:28 AM EST 5:45 PM EST
Civil Twilight 7:01 AM EST 6:11 PM EST
Nautical Twilight 6:31 AM EST 6:42 PM EST
Astronomical Twilight 6:01 AM EST 7:11 PM EST
Moon 10:58 AM EST (1/17) No Moon Set
Length of Visible Light 11h 10m
Length of Day
10h 17m
Waxing Crescent, 37% of the Moon is Illuminated
Jan 17
Waxing Crescent
Jan 18
First Quarter
Jan 26
Full
Feb 3
Last Quarter
Feb 10
New

Hourly Weather History & Observations

Time (EST) Temp. Windchill Dew Point Humidity Pressure Visibility Wind Dir Wind Speed Gust Speed Precip Events Conditions
12:15 AM 66.7 °F - 63.5 °F 89% 29.99 in 10.0 mi SW 3.5 mph - N/A   Clear
12:35 AM 66.4 °F - 63.1 °F 89% 29.99 in 10.0 mi Calm Calm - N/A   Clear
12:55 AM 65.8 °F - 63.0 °F 90% 29.99 in 10.0 mi Calm Calm - N/A   Clear
1:15 AM 66.0 °F - 63.1 °F 90% 29.99 in 10.0 mi SSW 3.5 mph - N/A   Scattered Clouds
1:35 AM 66.7 °F - 63.3 °F 89% 29.99 in 10.0 mi Calm Calm - N/A   Scattered Clouds
1:55 AM 66.7 °F - 63.5 °F 89% 29.99 in 10.0 mi SW 3.5 mph - N/A   Overcast
2:15 AM 65.7 °F - 63.1 °F 92% 29.99 in 10.0 mi Calm Calm - N/A   Scattered Clouds
2:35 AM 65.3 °F - 63.1 °F 93% 29.99 in 10.0 mi Calm Calm - N/A   Scattered Clouds
2:55 AM 65.5 °F - 63.5 °F 93% 29.98 in 10.0 mi Calm Calm - N/A   Overcast
3:15 AM 65.7 °F - 63.7 °F 93% 29.98 in 10.0 mi Calm Calm - N/A   Overcast
3:35 AM 65.8 °F - 63.9 °F 93% 29.97 in 10.0 mi Calm Calm - N/A   Overcast
3:55 AM 65.3 °F - 63.7 °F 94% 29.96 in 10.0 mi Calm Calm - N/A   Scattered Clouds
4:15 AM 64.9 °F - 63.7 °F 96% 29.95 in 10.0 mi Calm Calm - N/A   Scattered Clouds
4:35 AM 64.8 °F - 63.9 °F 97% 29.95 in 10.0 mi Calm Calm - N/A   Mostly Cloudy
4:55 AM 63.7 °F - 63.0 °F 97% 29.94 in 10.0 mi Calm Calm - N/A   Scattered Clouds
5:15 AM 63.1 °F - 62.8 °F 99% 29.94 in 10.0 mi Calm Calm - N/A   Clear
5:35 AM 62.8 °F - 62.6 °F 99% 29.94 in 7.0 mi Calm Calm - N/A   Scattered Clouds
5:55 AM 62.2 °F - 62.2 °F 100% 29.94 in 7.0 mi Calm Calm - N/A   Scattered Clouds
6:15 AM 62.8 °F - 62.8 °F 100% 29.94 in 7.0 mi Calm Calm - N/A   Mostly Cloudy
6:35 AM 63.1 °F - 63.1 °F 100% 29.94 in 10.0 mi South 4.6 mph - N/A   Scattered Clouds
6:55 AM 63.1 °F - 62.8 °F 99% 29.94 in 10.0 mi South 4.6 mph - N/A   Mostly Cloudy
7:15 AM 63.3 °F - 62.6 °F 97% 29.94 in 10.0 mi Calm Calm - N/A   Overcast
7:35 AM 63.1 °F - 62.2 °F 97% 29.94 in 10.0 mi South 3.5 mph - N/A   Overcast
7:55 AM 63.1 °F - 62.1 °F 96% 29.94 in 10.0 mi South 4.6 mph - N/A   Overcast
8:15 AM 63.9 °F - 62.2 °F 94% 29.94 in 10.0 mi South 4.6 mph - N/A   Overcast
8:35 AM 64.4 °F - 62.1 °F 92% 29.94 in 10.0 mi South 3.5 mph - N/A   Overcast
8:55 AM 64.4 °F - 62.1 °F 92% 29.94 in 10.0 mi South 4.6 mph - N/A   Overcast
9:15 AM 64.8 °F - 62.2 °F 92% 29.94 in 10.0 mi South 4.6 mph - N/A   Overcast
9:35 AM 66.2 °F - 62.6 °F 88% 29.94 in 10.0 mi SSW 5.8 mph - N/A   Overcast
9:55 AM 67.1 °F - 63.1 °F 87% 29.92 in 10.0 mi South 4.6 mph - N/A   Overcast
10:15 AM 69.8 °F - 63.7 °F 81% 29.91 in 10.0 mi SSW 5.8 mph - N/A   Scattered Clouds
10:35 AM 72.0 °F - 64.4 °F 77% 29.91 in 10.0 mi South 11.5 mph 16.1 mph N/A   Mostly Cloudy
10:55 AM 73.6 °F - 64.8 °F 74% 29.89 in 10.0 mi South 6.9 mph 17.3 mph N/A   Mostly Cloudy
11:15 AM 75.7 °F - 65.1 °F 69% 29.87 in 10.0 mi SSW 5.8 mph - N/A   Scattered Clouds
11:35 AM 76.3 °F - 64.9 °F 68% 29.86 in 10.0 mi SSW 15.0 mph 20.7 mph N/A   Scattered Clouds
11:55 AM 77.2 °F - 65.3 °F 67% 29.84 in 10.0 mi SSW 12.7 mph 19.6 mph N/A   Scattered Clouds
12:15 PM 78.1 °F - 65.3 °F 65% 29.83 in 10.0 mi SSW 17.3 mph 25.3 mph N/A   Scattered Clouds
12:35 PM 77.2 °F - 65.3 °F 67% 29.80 in 10.0 mi SSW 10.4 mph 18.4 mph N/A   Mostly Cloudy
12:55 PM 75.6 °F - 65.1 °F 70% 29.79 in 10.0 mi SSW 11.5 mph 21.9 mph N/A   Overcast
1:15 PM 66.2 °F - 61.0 °F 83% 29.81 in 5.0 mi West 19.6 mph 32.2 mph N/A Rain Rain
1:35 PM 60.1 °F - 58.6 °F 95% 29.82 in 7.0 mi West 13.8 mph 23.0 mph N/A   Drizzle
1:55 PM 58.8 °F - 56.7 °F 93% 29.83 in 7.0 mi West 13.8 mph 32.2 mph N/A   Drizzle
2:15 PM 58.1 °F - 56.3 °F 94% 29.82 in 7.0 mi West 12.7 mph 21.9 mph N/A Rain Heavy Rain
2:35 PM 57.2 °F - 56.5 °F 97% 29.83 in 2.5 mi West 11.5 mph 20.7 mph N/A   Heavy Drizzle
2:55 PM 55.2 °F - 54.3 °F 97% 29.85 in 4.0 mi West 12.7 mph 27.6 mph N/A   Heavy Drizzle
3:15 PM 53.8 °F - 53.2 °F 98% 29.86 in 3.0 mi West 16.1 mph 25.3 mph N/A   Heavy Drizzle
3:35 PM 51.3 °F - 50.5 °F 97% 29.88 in 2.0 mi West 16.1 mph 23.0 mph N/A   Heavy Drizzle
3:55 PM 50.9 °F - 49.8 °F 96% 29.87 in 10.0 mi WSW 9.2 mph 20.7 mph N/A   Overcast
4:15 PM 51.4 °F - 50.0 °F 95% 29.87 in 10.0 mi WSW 6.9 mph 17.3 mph N/A   Overcast
4:35 PM 52.5 °F - 49.5 °F 89% 29.87 in 10.0 mi WSW 8.1 mph - N/A   Mostly Cloudy
4:55 PM 52.9 °F - 49.1 °F 87% 29.88 in 10.0 mi WSW 6.9 mph - N/A   Scattered Clouds
5:15 PM 52.5 °F - 49.1 °F 88% 29.89 in 10.0 mi West 5.8 mph - N/A   Clear
5:35 PM 51.8 °F - 49.1 °F 90% 29.89 in 10.0 mi WSW 4.6 mph - N/A   Scattered Clouds
5:55 PM 52.0 °F - 49.6 °F 92% 29.91 in 10.0 mi West 3.5 mph - N/A   Overcast
6:35 PM 50.2 °F - 43.3 °F 77% 29.95 in 10.0 mi West 20.7 mph 29.9 mph N/A   Mostly Cloudy
7:15 PM 49.1 °F - 41.2 °F 74% 29.98 in 10.0 mi West 9.2 mph 17.3 mph N/A   Overcast
7:55 PM 48.4 °F - 40.3 °F 74% 30.02 in 10.0 mi West 11.5 mph 19.6 mph N/A   Overcast
8:35 PM 47.5 °F - 39.9 °F 75% 30.06 in 10.0 mi WNW 15.0 mph 23.0 mph N/A   Mostly Cloudy
8:55 PM 46.6 °F - 39.6 °F 77% 30.07 in 10.0 mi WNW 15.0 mph 26.5 mph N/A   Mostly Cloudy
9:15 PM 45.1 °F 38.8 °F 38.5 °F 77% 30.09 in 10.0 mi WNW 13.8 mph 25.3 mph N/A   Mostly Cloudy
9:55 PM 43.3 °F 38.1 °F 37.9 °F 81% 30.10 in 10.0 mi WNW 9.2 mph - N/A   Clear
10:15 PM 42.8 °F 38.0 °F 37.9 °F 83% 30.11 in 10.0 mi WNW 8.1 mph - N/A   Clear
10:35 PM 43.3 °F 39.2 °F 38.3 °F 82% 30.11 in 10.0 mi WNW 6.9 mph - N/A   Mostly Cloudy
10:55 PM 43.7 °F 38.6 °F 38.7 °F 82% 30.12 in 10.0 mi WNW 9.2 mph - N/A   Overcast